�������l�o���
Date,Time,MP-1(��Sv/h),MP-2(��Sv/h),MP-3(��Sv/h),MP-4(��Sv/h),MP-5(��Sv/h),MP-6(��Sv/h),MP-7(��Sv/h),MP-8(��Sv/h),����,����(m/s),���J
2019/11/22,00:00,0.729,1.061,0.697,1.312,0.924,0.412,0.724,0.686,�k�k��,2.4,��
2019/11/22,00:10,0.729,1.058,0.698,1.313,0.926,0.411,0.724,0.686,�k�k��,2.7,��
2019/11/22,00:20,0.730,1.059,0.697,1.311,0.924,0.412,0.723,0.686,�k��,2.0,��
2019/11/22,00:30,0.732,1.060,0.697,1.312,0.926,0.412,0.724,0.685,���k��,1.2,��
2019/11/22,00:40,0.730,1.058,0.699,1.311,0.926,0.412,0.722,0.686,��,1.2,��
2019/11/22,00:50,0.730,1.060,0.698,1.311,0.926,0.411,0.723,0.686,��,0.9,��
2019/11/22,01:00,0.732,1.060,0.699,1.314,0.924,0.413,0.723,0.685,���쐼,0.9,��
2019/11/22,01:10,0.730,1.058,0.698,1.313,0.922,0.412,0.722,0.686,-,CALM,��
2019/11/22,01:20,0.729,1.060,0.699,1.312,0.926,0.412,0.723,0.686,-,CALM,��
2019/11/22,01:30,0.733,1.060,0.700,1.314,0.925,0.413,0.722,0.686,�k,1.2,��
2019/11/22,01:40,0.729,1.058,0.699,1.312,0.924,0.411,0.722,0.687,�k,2.0,��
2019/11/22,01:50,0.729,1.058,0.697,1.314,0.926,0.411,0.722,0.688,�k,2.4,��
2019/11/22,02:00,0.731,1.057,0.697,1.313,0.925,0.412,0.723,0.687,�k,3.2,��
2019/11/22,02:10,0.731,1.058,0.698,1.312,0.926,0.411,0.722,0.685,�k,3.1,��
2019/11/22,02:20,0.729,1.060,0.697,1.314,0.926,0.412,0.723,0.687,�k�k��,3.0,��
2019/11/22,02:30,0.729,1.057,0.698,1.313,0.925,0.412,0.723,0.686,�k�k��,2.8,��
2019/11/22,02:40,0.732,1.061,0.698,1.311,0.925,0.412,0.723,0.685,�k�k��,4.1,��
2019/11/22,02:50,0.730,1.058,0.699,1.313,0.923,0.413,0.723,0.685,�k��,3.8,��
2019/11/22,03:00,0.731,1.060,0.698,1.312,0.924,0.412,0.724,0.684,�k��,3.9,��
2019/11/22,03:10,0.731,1.062,0.699,1.313,0.924,0.412,0.721,0.686,�k�k��,3.0,��
2019/11/22,03:20,0.730,1.059,0.698,1.316,0.926,0.413,0.724,0.685,�k�k��,3.2,��
2019/11/22,03:30,0.730,1.058,0.698,1.313,0.924,0.413,0.722,0.685,�k�k��,3.8,��
2019/11/22,03:40,0.730,1.058,0.698,1.315,0.924,0.414,0.722,0.686,�k�k��,3.9,��
2019/11/22,03:50,0.731,1.060,0.698,1.313,0.924,0.412,0.723,0.686,�k�k��,3.0,��
2019/11/22,04:00,0.731,1.059,0.698,1.312,0.925,0.412,0.722,0.686,�k�k��,2.8,��
2019/11/22,04:10,0.731,1.059,0.698,1.314,0.922,0.412,0.722,0.685,�k�k��,2.7,��
2019/11/22,04:20,0.730,1.057,0.698,1.315,0.924,0.412,0.721,0.686,�k��,2.2,��
2019/11/22,04:30,0.729,1.057,0.699,1.313,0.923,0.413,0.722,0.687,�k��,2.5,��
2019/11/22,04:40,0.730,1.058,0.698,1.312,0.923,0.411,0.722,0.687,�k��,3.1,��
2019/11/22,04:50,0.730,1.059,0.698,1.313,0.923,0.412,0.723,0.686,�k��,3.0,��
2019/11/22,05:00,0.732,1.058,0.698,1.312,0.924,0.412,0.722,0.686,�k�k��,3.3,��
2019/11/22,05:10,0.731,1.057,0.698,1.315,0.924,0.413,0.724,0.686,�k��,3.5,��
2019/11/22,05:20,0.731,1.058,0.699,1.313,0.925,0.411,0.723,0.685,�k��,3.4,��
2019/11/22,05:30,0.729,1.058,0.699,1.313,0.925,0.412,0.724,0.687,�k��,3.8,��
2019/11/22,05:40,0.731,1.057,0.697,1.314,0.922,0.412,0.723,0.685,�k��,3.8,��
2019/11/22,05:50,0.730,1.060,0.697,1.315,0.924,0.411,0.723,0.685,�k�k��,3.8,��
2019/11/22,06:00,0.731,1.057,0.698,1.313,0.925,0.410,0.723,0.685,�k�k��,4.0,��
2019/11/22,06:10,0.730,1.059,0.698,1.312,0.924,0.412,0.723,0.685,�k�k��,3.8,��
2019/11/22,06:20,0.729,1.057,0.696,1.314,0.925,0.412,0.723,0.687,�k�k��,4.0,��
2019/11/22,06:30,0.730,1.057,0.697,1.313,0.926,0.412,0.723,0.687,�k�k��,4.2,��
2019/11/22,06:40,0.728,1.056,0.696,1.314,0.924,0.414,0.723,0.686,�k�k��,3.9,��
2019/11/22,06:50,0.729,1.055,0.698,1.313,0.922,0.412,0.723,0.685,�k��,3.6,��
2019/11/22,07:00,0.729,1.059,0.696,1.313,0.924,0.411,0.723,0.685,�k��,4.1,��
2019/11/22,07:10,0.729,1.054,0.696,1.313,0.925,0.412,0.721,0.685,�k��,4.0,��
2019/11/22,07:20,0.729,1.058,0.696,1.311,0.923,0.412,0.722,0.685,�k�k��,3.5,��
2019/11/22,07:30,0.729,1.055,0.696,1.312,0.923,0.412,0.722,0.685,�k�k��,3.8,��
2019/11/22,07:40,0.731,1.057,0.696,1.314,0.923,0.411,0.723,0.687,�k��,3.8,��
2019/11/22,07:50,0.731,1.057,0.697,1.312,0.924,0.413,0.724,0.685,�k�k��,3.3,��
2019/11/22,08:00,0.732,1.058,0.696,1.313,0.924,0.414,0.725,0.686,�k�k��,3.5,��
2019/11/22,08:10,0.730,1.057,0.696,1.315,0.924,0.412,0.725,0.686,�k��,4.2,��
2019/11/22,08:20,0.732,1.057,0.696,1.313,0.925,0.413,0.722,0.686,�k��,4.4,��
2019/11/22,08:30,0.732,1.058,0.696,1.314,0.924,0.412,0.725,0.685,�k�k��,4.5,��
2019/11/22,08:40,0.733,1.059,0.697,1.314,0.925,0.412,0.725,0.686,�k�k��,4.3,��
2019/11/22,08:50,0.732,1.056,0.693,1.317,0.925,0.412,0.725,0.687,�k�k��,4.4,��
2019/11/22,09:00,0.733,1.059,0.692,1.313,0.923,0.413,0.725,0.686,�k�k��,3.8,��
2019/11/22,09:10,0.732,1.057,0.696,1.316,0.925,0.413,0.727,0.687,�k�k��,3.4,��
2019/11/22,09:20,0.734,1.058,0.697,1.316,0.927,0.412,0.724,0.685,�k�k��,3.0,��
2019/11/22,09:30,0.734,1.053,0.698,1.314,0.925,0.413,0.723,0.686,�k�k��,2.1,��
2019/11/22,09:40,0.732,1.052,0.699,1.314,0.928,0.414,0.725,0.687,�k�k��,2.6,��
2019/11/22,09:50,0.734,1.057,0.698,1.315,0.926,0.413,0.725,0.686,�k�k��,2.2,��
2019/11/22,10:00,0.734,1.056,0.698,1.313,0.928,0.413,0.723,0.686,�k�k��,2.4,��
2019/11/22,10:10,0.733,1.059,0.699,1.315,0.927,0.414,0.724,0.687,�k�k��,3.3,��
2019/11/22,10:20,0.732,1.056,0.699,1.315,0.925,0.414,0.723,0.688,�k�k��,2.5,��
2019/11/22,10:30,0.733,1.057,0.700,1.313,0.927,0.413,0.723,0.687,�k�k��,3.1,��
2019/11/22,10:40,0.733,1.056,0.700,1.317,0.926,0.415,0.725,0.687,�k,3.2,��
2019/11/22,10:50,0.734,1.059,0.698,1.315,0.925,0.412,0.723,0.688,�k�k��,3.3,��
2019/11/22,11:00,0.735,1.060,0.701,1.316,0.927,0.412,0.724,0.687,�k�k��,3.6,��
2019/11/22,11:10,0.735,1.059,0.699,1.315,0.928,0.414,0.724,0.688,�k��,2.8,��
2019/11/22,11:20,0.734,1.055,0.700,1.315,0.927,0.412,0.725,0.687,�k��,2.4,��
2019/11/22,11:30,0.734,1.059,0.698,1.315,0.925,0.411,0.723,0.688,�k��,3.1,��
2019/11/22,11:40,0.734,1.058,0.698,1.315,0.926,0.412,0.725,0.687,�k�k��,2.4,��
2019/11/22,11:50,0.733,1.057,0.699,1.317,0.924,0.413,0.724,0.687,�k,2.7,��
2019/11/22,12:00,0.732,1.056,0.698,1.315,0.924,0.413,0.723,0.687,�k�k��,2.3,��
2019/11/22,12:10,0.731,1.056,0.698,1.314,0.923,0.412,0.723,0.687,�k��,1.8,��
2019/11/22,12:20,0.732,1.059,0.700,1.316,0.924,0.413,0.724,0.686,�k�k��,2.0,��
2019/11/22,12:30,0.734,1.059,0.701,1.315,0.926,0.414,0.722,0.685,�k��,1.9,��
2019/11/22,12:40,0.733,1.059,0.702,1.317,0.925,0.415,0.725,0.687,�k�k��,2.1,��
2019/11/22,12:50,0.732,1.059,0.702,1.315,0.925,0.413,0.726,0.686,�k�k��,1.5,��
2019/11/22,13:00,0.735,1.060,0.699,1.316,0.925,0.412,0.725,0.688,�k�k��,2.1,��
2019/11/22,13:10,0.734,1.062,0.700,1.315,0.927,0.414,0.724,0.689,�k�k��,2.0,��
2019/11/22,13:20,0.734,1.062,0.699,1.316,0.926,0.413,0.724,0.689,�k,2.3,��
2019/11/22,13:30,0.734,1.062,0.701,1.315,0.925,0.415,0.725,0.687,�k,2.5,��
2019/11/22,13:40,0.734,1.065,0.700,1.315,0.927,0.413,0.724,0.687,�k,2.3,��
2019/11/22,13:50,0.733,1.060,0.702,1.316,0.925,0.414,0.724,0.689,�k,1.6,��
2019/11/22,14:00,0.733,1.062,0.701,1.315,0.925,0.414,0.725,0.689,�k�k��,2.1,��
2019/11/22,14:10,0.736,1.059,0.701,1.316,0.926,0.413,0.725,0.687,�k�k��,1.8,��
2019/11/22,14:20,0.733,1.061,0.699,1.313,0.928,0.414,0.725,0.689,�k�k��,1.4,��
2019/11/22,14:30,0.734,1.062,0.701,1.316,0.928,0.413,0.724,0.688,�k,1.0,��
2019/11/22,14:40,0.734,1.064,0.702,1.315,0.928,0.414,0.725,0.688,���k��,1.1,��
2019/11/22,14:50,0.732,1.061,0.701,1.316,0.928,0.412,0.724,0.688,�k�k��,1.8,�L
2019/11/22,15:00,0.733,1.061,0.700,1.316,0.927,0.414,0.725,0.689,�k�k��,1.0,�L
2019/11/22,15:10,0.734,1.064,0.700,1.316,0.928,0.415,0.725,0.689,�k��,1.1,��
2019/11/22,15:20,0.733,1.063,0.698,1.315,0.926,0.415,0.724,0.686,�k�k��,0.9,��
2019/11/22,15:30,0.734,1.060,0.698,1.316,0.925,0.413,0.725,0.688,���k��,0.6,�L
2019/11/22,15:40,0.734,1.062,0.699,1.315,0.927,0.413,0.724,0.688,��,0.7,�L
2019/11/22,15:50,0.732,1.062,0.700,1.316,0.924,0.414,0.725,0.686,��,0.8,�L
2019/11/22,16:00,0.733,1.062,0.700,1.316,0.924,0.413,0.726,0.686,���k��,0.7,�L
2019/11/22,16:10,0.732,1.058,0.699,1.314,0.923,0.414,0.724,0.686,��,1.0,�L
2019/11/22,16:20,0.732,1.056,0.697,1.312,0.917,0.413,0.723,0.685,-,CALM,�L
2019/11/22,16:30,0.730,1.056,0.697,1.308,0.917,0.415,0.721,0.684,���쓌,2.1,�L
2019/11/22,16:40,0.729,1.050,0.694,1.308,0.913,0.413,0.720,0.684,���쓌,1.3,�L
2019/11/22,16:50,0.728,1.053,0.694,1.304,0.912,0.414,0.719,0.682,�쐼,1.4,�L
2019/11/22,17:00,0.727,1.050,0.694,1.302,0.913,0.413,0.718,0.683,��,1.2,�L
2019/11/22,17:10,0.728,1.050,0.694,1.303,0.909,0.412,0.718,0.685,��쐼,1.3,�L
2019/11/22,17:20,0.728,1.048,0.693,1.302,0.909,0.412,0.718,0.683,���쐼,1.4,�L
2019/11/22,17:30,0.726,1.048,0.694,1.299,0.909,0.412,0.718,0.684,���쐼,1.2,�L
2019/11/22,17:40,0.725,1.044,0.693,1.298,0.908,0.412,0.718,0.682,�쐼,1.4,�L
2019/11/22,17:50,0.725,1.042,0.691,1.298,0.906,0.412,0.718,0.683,��쐼,1.1,�L
2019/11/22,18:00,0.723,1.043,0.690,1.296,0.905,0.412,0.716,0.681,�쐼,1.2,�L
2019/11/22,18:10,0.722,1.040,0.689,1.293,0.903,0.412,0.716,0.681,��,1.6,�L
2019/11/22,18:20,0.722,1.038,0.688,1.292,0.903,0.412,0.716,0.682,��,1.1,�L
2019/11/22,18:30,0.721,1.034,0.687,1.290,0.900,0.411,0.717,0.679,���k��,1.4,�L
2019/11/22,18:40,0.721,1.032,0.685,1.286,0.899,0.410,0.715,0.679,�k��,1.2,�L
2019/11/22,18:50,0.719,1.032,0.685,1.285,0.899,0.409,0.713,0.679,-,CALM,�L
2019/11/22,19:00,0.719,1.029,0.686,1.283,0.898,0.409,0.714,0.678,�k�k��,2.1,�L
2019/11/22,19:10,0.716,1.025,0.684,1.281,0.895,0.410,0.712,0.680,-,CALM,�L
2019/11/22,19:20,0.715,1.022,0.685,1.277,0.892,0.410,0.713,0.677,�k�k��,2.5,�L
2019/11/22,19:30,0.714,1.020,0.682,1.277,0.892,0.409,0.711,0.677,�k�k��,2.7,�L
2019/11/22,19:40,0.714,1.020,0.682,1.275,0.892,0.410,0.713,0.677,-,CALM,�L
2019/11/22,19:50,0.711,1.018,0.679,1.270,0.891,0.407,0.711,0.676,-,CALM,�L
2019/11/22,20:00,0.709,1.015,0.679,1.267,0.886,0.409,0.709,0.675,-,CALM,�L
2019/11/22,20:10,0.710,1.010,0.676,1.265,0.886,0.408,0.709,0.673,-,CALM,�L
2019/11/22,20:20,0.707,1.009,0.676,1.262,0.883,0.409,0.710,0.675,-,CALM,�L
2019/11/22,20:30,0.704,1.007,0.675,1.258,0.883,0.408,0.708,0.675,-,CALM,�L
2019/11/22,20:40,0.705,1.007,0.675,1.259,0.884,0.406,0.709,0.673,�k�k��,3.8,�L
2019/11/22,20:50,0.706,1.007,0.673,1.255,0.883,0.408,0.708,0.674,�k�k��,2.7,�L
2019/11/22,21:00,0.705,1.005,0.674,1.256,0.881,0.408,0.708,0.673,�k��,3.1,�L
2019/11/22,21:10,0.704,1.005,0.675,1.255,0.880,0.409,0.708,0.673,�k��,3.9,�L
2019/11/22,21:20,0.700,1.004,0.674,1.252,0.879,0.406,0.708,0.673,�k��,4.1,�L
2019/11/22,21:30,0.702,1.004,0.673,1.251,0.879,0.406,0.707,0.671,�k��,3.2,�L
2019/11/22,21:40,0.699,0.998,0.670,1.248,0.877,0.405,0.707,0.672,�k�k��,3.4,�L
2019/11/22,21:50,0.699,0.997,0.670,1.248,0.875,0.405,0.705,0.671,�k��,3.3,�L
2019/11/22,22:00,0.700,0.996,0.672,1.246,0.875,0.406,0.705,0.671,�k�k��,3.9,�L
2019/11/22,22:10,0.698,0.997,0.669,1.246,0.875,0.403,0.705,0.670,�k��,4.9,�L
2019/11/22,22:20,0.697,0.996,0.670,1.243,0.874,0.403,0.705,0.672,�k�k��,4.3,�L
2019/11/22,22:30,0.698,0.994,0.669,1.243,0.873,0.405,0.706,0.671,�k,3.8,�L
2019/11/22,22:40,0.698,0.994,0.668,1.242,0.873,0.404,0.705,0.669,�k�k��,2.9,�L
2019/11/22,22:50,0.698,0.997,0.671,1.243,0.872,0.406,0.705,0.670,�k�k��,2.8,�L
2019/11/22,23:00,0.697,0.994,0.667,1.240,0.873,0.405,0.704,0.669,�k�k��,3.1,�L
2019/11/22,23:10,0.697,0.990,0.667,1.241,0.870,0.403,0.705,0.669,�k�k��,3.5,�L
2019/11/22,23:20,0.697,0.992,0.669,1.240,0.870,0.404,0.703,0.668,�k�k��,3.1,�L
2019/11/22,23:30,0.697,0.992,0.667,1.235,0.870,0.403,0.703,0.668,�k�k��,2.8,�L
2019/11/22,23:40,0.694,0.987,0.666,1.237,0.868,0.403,0.701,0.669,�k��,3.4,�L
2019/11/22,23:50,0.695,0.989,0.665,1.235,0.869,0.402,0.702,0.667,�k��,3.9,�L
